Flag for Taiwan Weather past 2 weeks in Taipei, Taiwan

Now
75 °F

Passing clouds.


Feels Like: 77 °F
Forecast: 70 / 84 °F
Wind: 5 mph from Southwest

Location: Sungshan / Taipei

Current Time: Apr 28, 2015 at 1:47:25 AM

Latest Report: Apr 28, 2015 at 1:00 AM


Visibility: N/A

Pressure: 29.86 "Hg

Humidity: 74%

Dew point: 66 °F

Location of TaipeiLocation

Historic Weather in Taipei — Graph

°F

Taipei temperature yesterday

Maximum temperature yesterday: 88 °F (at 1:00 PM)
Minimum temperature yesterday: 73 °F (at 3:00 AM)
Average temperature yesterday: 79 °F

Past Weeks' High & Low Weather Summary

 TemperatureHumidityPressure
High90 °F (Apr 20, 11:30 AM)100% (Apr 25, 6:30 AM)30.15 "Hg (Apr 25, 6:30 AM)
Low54 °F (Apr 15, 5:00 AM)20% (Apr 15, 12:00 PM)29.65 "Hg (Apr 20, 1:00 AM)
Average73 °F67%29.96 "Hg
* Reported Midnight between Apr 12 and Apr 13 — Midnight between Apr 27 and Apr 28, Taipei, Weather by CustomWeather, © 2015

Note: Actual official high and low records may vary slightly from our data, if they occured in-between our weather recording intervals... More about our weather records

Advertising

Taipei weather history for previous 24 hours

 ConditionsComfort  
Time TempWeatherWind HumidityBarometerVisibility
12:00 AM
Tue, Apr 28
77 °FPassing clouds.2 mph69%29.89 "HgN/A
11:30 PM
Mon, Apr 27
77 °FPassing clouds.2 mph74%29.89 "HgN/A
11:00 PM77 °FPassing clouds.3 mph74%29.89 "Hg6 mi
10:30 PM75 °FPartly cloudy.5 mph78%29.92 "Hg6 mi
10:00 PM75 °FPartly cloudy.3 mph78%29.92 "Hg5 mi
9:30 PM75 °FPartly cloudy.6 mph78%29.92 "Hg5 mi
9:00 PM75 °FPartly cloudy.5 mph78%29.92 "Hg5 mi
8:30 PM75 °FPassing clouds.6 mph78%29.92 "Hg5 mi
8:00 PM75 °FPassing clouds.6 mph78%29.89 "Hg5 mi
7:30 PM75 °FPassing clouds.6 mph78%29.89 "Hg5 mi
7:00 PM75 °FPassing clouds.7 mph78%29.89 "Hg6 mi
6:30 PM77 °FPassing clouds.9 mph74%29.89 "Hg6 mi
6:00 PM77 °FScattered clouds.9 mph79%29.89 "Hg6 mi
5:30 PM79 °FBroken clouds.8 mph74%29.89 "Hg6 mi
5:00 PM81 °FScattered clouds.7 mph62%29.89 "HgN/A
4:30 PM82 °FScattered showers. Broken clouds.7 mph55%29.89 "HgN/A
4:00 PM82 °FScattered clouds.7 mph62%29.86 "Hg6 mi
3:30 PM82 °FScattered clouds.9 mph66%29.86 "HgN/A
3:00 PM82 °FScattered clouds.8 mph58%29.89 "HgN/A
2:30 PM84 °FScattered clouds.12 mph55%29.86 "HgN/A
2:00 PM88 °FPassing clouds.12 mph49%29.89 "HgN/A
1:30 PM88 °FPassing clouds.10 mph46%29.89 "HgN/A
1:00 PM88 °FPassing clouds.7 mph46%29.89 "Hg6 mi
12:30 PM86 °FPassing clouds.9 mph46%29.92 "Hg6 mi
12:00 PM86 °FPassing clouds.9 mph49%29.92 "Hg6 mi
11:30 AM84 °FPassing clouds.6 mph48%29.95 "Hg6 mi
11:00 AM84 °FPassing clouds.6 mph51%29.95 "Hg5 mi
10:30 AM82 °FScattered clouds.3 mph62%29.98 "Hg5 mi
10:00 AM81 °FPartly sunny.3 mph62%29.98 "Hg5 mi
9:30 AM79 °FBroken clouds.3 mph65%29.98 "Hg5 mi
9:00 AM79 °FBroken clouds.1 mph65%29.98 "Hg5 mi
8:30 AM79 °FBroken clouds.3 mph70%29.98 "Hg5 mi
8:00 AM77 °FBroken clouds.2 mph69%29.98 "Hg6 mi
7:30 AM75 °FPartly sunny.2 mph69%29.98 "HgN/A
7:00 AM75 °FPartly sunny.1 mph69%29.98 "HgN/A
6:30 AM73 °FBroken clouds.2 mph74%29.98 "HgN/A
6:00 AM73 °FScattered clouds.2 mph74%29.95 "HgN/A
5:00 AM73 °FPassing clouds.2 mph74%29.95 "HgN/A
4:00 AM73 °FPassing clouds.1 mph74%29.92 "HgN/A
3:00 AM73 °FPassing clouds.1 mph74%29.92 "HgN/A
2:00 AM75 °FPassing clouds.2 mph69%29.95 "HgN/A
1:00 AM75 °FPassing clouds.5 mph69%29.95 "HgN/A
Weather by CustomWeather, © 2015

See weather overviewHow to use our weather pages